Regional Weather Roundup
Issued by NWS

Home | Current Version | Previous Version | Graphics & Text | Print | Product List | Glossary On
Versions: 1 2 3 4 5 6 7 8 9 10 11 12 13 14 15 16 17 18 19 20 21 22 23 24 25 26 27 28 29 30 31 32 33 34 35 36 37 38 39 40 41 42 43 44 45 46 47 48 49 50
000
ASUS43 KIND 270709
RWRIN

WEATHER ROUNDUP FOR INDIANA
NATIONAL WEATHER SERVICE INDIANAPOLIS IN
300 AM EDT FRI MAR 27 2015

NOTE: "FAIR" INDICATES FEW OR NO CLOUDS BELOW 12,000 FEET WITH NO
SIGNIFICANT WEATHER AND/OR OBSTRUCTIONS TO VISIBILITY.

* - STATION DOES NOT REPORT WEATHER SUCH AS PRECIPITATION OR FOG.

+ - STATION NOT QUALITY CONTROLLED BY THE NATIONAL WEATHER SERVICE.
    USE DATA WITH CAUTION...ESPECIALLY DEWPOINT AND RELATIVE
    HUMIDITY OBSERVATIONS.

INZ001>003-010>013-019-020-270800-
NORTHWEST INDIANA

CITY           SKY/WX    TMP DP  RH WIND       PRES   REMARKS
GARY /AIRPORT/ CLOUDY    32  24  71 N12       30.07S WCI  23
KNOX *+          N/A     32  18  55 N13       30.02S WCI  22
LA PORTE +     CLOUDY    31  24  75 N15       30.04R WCI  20
MICHIGAN CITY+ CLOUDY    28  19  69 N13G18    30.05S WCI  18
MONTICELLO +   PTCLDY    30  27  86 N9        30.01S WCI  22
RENSSELAER +   CLOUDY    32  30  93 N9        30.03F WCI  24
VALPARAISO     FLURRIES  29  23  78 N10       30.04R WCI  20

$$

LMZ046-743>745-270800-
SOUTHERN LAKE MICHIGAN

STATION/POSITION TIME  TEMP WIND        PRES
                       AIR  DIR/SP/G
                 (UTC) (F)  (DEG/KT/KT) (MB)
BURNS HARBOR     0700   30   30/ 19/ 23 1017.9S
MICHIGAN CITY    0700   28  360/ 21/ 24   N/A

$$

INZ004-005-014>016-021>024-270800-
NORTH CENTRAL INDIANA

CITY           SKY/WX    TMP DP  RH WIND       PRES   REMARKS
GOSHEN         PTCLDY    30  23  75 NW9       29.98F WCI  22
LOGANSPORT +   MOCLDY    30  27  86 N6        30.02S WCI  24
PERU/GRISSOM   CLEAR     29  24  81 N5        29.99S WCI  24
ROCHESTER +    CLEAR     32  28  86 NW7       30.00F WCI  26
SOUTH BEND     CLOUDY    28  20  71 N14       30.03R WCI  17
WARSAW +       CLEAR     30  23  74 NW6       29.99S WCI  24

$$

INZ006>009-017-018-025>027-270800-
NORTHEAST INDIANA

CITY           SKY/WX    TMP DP  RH WIND       PRES   REMARKS
ANGOLA *+      CLOUDY    30  25  80 N9        29.96S WCI  22
AUBURN +       MOCLDY    32  23  69 NW6       29.98F WCI  26
FORT WAYNE     PTCLDY    30  24  78 CALM      29.99F
HUNTINGTON +   CLEAR     29  22  74 CALM      29.99S

$$

INZ028-029-035-036-043>045-051>053-270800-
WEST CENTRAL INDIANA

CITY           SKY/WX    TMP DP  RH WIND       PRES   REMARKS
CRAWFORDSVL +  CLEAR     28  21  74 NE3       30.01S
GREENCASTLE +  CLEAR     32  23  69 CALM      30.01S
LAFAYETTE      CLEAR     27  24  89 N3        30.02S
TERRE HAUTE    CLEAR     31  26  82 N5        30.02S WCI  26

$$

INZ030>032-037>040-046>048-054>057-064-065-270800-
CENTRAL INDIANA

CITY           SKY/WX    TMP DP  RH WIND       PRES   REMARKS
CP ATTERBURY + CLEAR     32  28  86 N5        30.00S WCI  27
FISHERS *+     CLEAR     30  27  86 CALM      30.00S
FRANKFORT +    CLEAR     30  27  88 NW5       30.02S WCI  26
GREENWOOD *+   CLEAR     30  23  74 NE5       30.00S WCI  25
INDIANAPOLIS   CLEAR     31  24  75 N6        29.99R WCI  25
-EAGLE CREEK   CLEAR     31  24  75 N3        30.00R
KOKOMO *+        N/A     30  23  74 N6        30.01R WCI  24
MARION +       CLEAR     30  25  79 CALM      30.00S
MT COMFORT *+  CLEAR     30  21  69 N6        30.01R WCI  24
SHELBYVILLE    CLEAR     34  26  72 N5        29.99S WCI  30
ZIONSVILLE +   CLEAR     31  25  79 N3        30.01R

$$

INZ033-034-041-042-049-050-058-059-270800-
EAST CENTRAL INDIANA

CITY           SKY/WX    TMP DP  RH WIND       PRES   REMARKS
MUNCIE         CLOUDY    32  25  75 N9        29.99S WCI  24

$$

INZ060-061-067>069-081>083-085>088-270800-
SOUTHWEST INDIANA

CITY           SKY/WX    TMP DP  RH WIND       PRES   REMARKS
EVANSVILLE     CLEAR     34  30  85 SW3       30.02F
HUNTINGBURG *+   N/A     32  28  86 CALM      30.01F
WASHINGTON +   CLEAR     32  29  88 CALM      30.01S

$$

INZ062-063-066-070>080-084-089>092-270800-
SOUTH CENTRAL AND SOUTHEAST INDIANA

CITY           SKY/WX    TMP DP  RH WIND       PRES   REMARKS
BEDFORD +      CLEAR     32  28  86 CALM      30.00S
BLOOMINGTON    CLEAR     30  27  88 CALM      29.99S
NORTH VERNON + CLEAR     34  32  93 N3        29.99S
SEYMOUR +      CLEAR     34  28  80 NW6       30.00S WCI  29

$$



USA.gov is the U.S. government's official web portal to all federal, state and local government web resources and services.